Orbital Elements at Epoch 2459200.5 (2020-Dec-17.0) TDB
Reference: JPL 17 (heliocentric ecliptic J2000)
Element | Value | Uncertainty (1-sigma) | Units |
e | .1215255060311657 | 6.0467e-08 | |
a | 2.550700883788664 | 1.9549e-08 | au |
q | 2.240725668152105 | 1.5905e-07 | au |
i | 5.132355512805178 | 6.2202e-06 | deg |
node | 155.5301458228872 | 5.2991e-05 | deg |
peri | 229.9975643022916 | 5.9885e-05 | deg |
M | 239.1665717796114 | 3.3133e-05 | deg |
tp | 2459699.927350555333 (2022-Apr-30.42735056) | 0.00014067 | TDB |
period | 1487.947903555241 4.07 | 1.7106e-05 4.683e-08 | d yr |
n | .2419439545832424 | 2.7814e-09 | deg/d |
Q | 2.860676099425223 | 2.1924e-08 | au |
|
| | Orbit Determination Parameters
Additional Information
|